Regional Weather Roundup
Issued by NWS

Home | Current Version | Previous Version | Graphics & Text | Print | Product List | Glossary On
Versions: 1 2 3 4 5 6 7 8 9 10 11 12 13 14 15 16 17 18 19 20 21 22 23 24 25 26 27 28 29 30 31 32 33 34 35 36 37 38 39 40 41 42 43 44 45 46 47 48 49 50
000
ASUS43 KMKX 261521
RWRWI

WISCONSIN REGIONAL WEATHER ROUNDUP
NATIONAL WEATHER SERVICE MILWAUKEE/SULLIVAN WI
900 AM CST MON JAN 26 2015

NOTE: "FAIR" INDICATES FEW OR NO CLOUDS BELOW 12,000 FEET WITH NO
SIGNIFICANT WEATHER AND/OR OBSTRUCTIONS TO VISIBILITY.

WIZ001-002-006>008-014>016-023>028-261600-
NORTHWEST WISCONSIN

CITY           SKY/WX    TMP DP  RH WIND       PRES   REMARKS
SUPERIOR ARPT  LGT SNOW  23  22  97 SW3       29.68S
ASHLAND        LGT SNOW  21  17  84 S8        29.70F FOG     WCI  11
HAYWARD        FRZ RAIN  19  17  92 S6        29.68S FOG     WCI  11
SIREN          CLOUDY    24  23  96 CALM      29.68S FOG
CUMBERLAND     CLOUDY    23  21  93 S6        29.69S FOG     WCI  16
RICE LAKE      MIX PCPN  22  20  93 SE9       29.71F WCI  12
CHETEK         CLOUDY    21  19  94 SE7       29.71F FOG     WCI  12
LADYSMITH      LGT SNOW  19  16  89 S8        29.73F WCI   8
EAU CLAIRE     CLOUDY    22  18  85 S8        29.73F WCI  12
MENOMONIE      CLOUDY    23  21  91 E7        29.73F WCI  15
NEW RICHMOND   CLOUDY    28  27  96 S9        29.69F WCI  19
OSCEOLA        CLOUDY    29  29 100 S5        29.72F WCI  23
$$

WIZ003>005-009-010-017-018-261600-
NORTH CENTRAL WISCONSIN

CITY           SKY/WX    TMP DP  RH WIND       PRES   REMARKS
MANITOWISH WTR LGT SNOW  14  10  86 S10       29.70F WCI   1
ARBOR VITAE    LGT SNOW  17  13  84 S9        29.73S WCI   5
WOODRUFF       LGT SNOW  17  13  84 S9        29.73S WCI   5
RHINELANDER    LGT SNOW  14  10  84 S8        29.74F FOG     WCI   3
EAGLE RIVER    LGT SNOW  14   9  79 S6        29.74S WCI   5
LAND O LAKES   LGT SNOW  15  11  85 S7        29.74S VSB 1   WCI   5
PHILLIPS       LGT SNOW  16  13  87 S12       29.70F WCI   3
TOMAHAWK       LGT SNOW  14  11  86 CALM      29.76F
MEDFORD        LGT SNOW  15  12  87 SE9       29.74F WCI   3
MERRILL        LGT SNOW  15  12  87 S5        29.79S WCI   8
$$

WIZ029-030-035-036-043>047-261600-
CENTRAL WISCONSIN

CITY           SKY/WX    TMP DP  RH WIND       PRES   REMARKS
WAUSAU         LGT SNOW  15  12  88 S8        29.79F VSB 1   WCI   4
MOSINEE        LGT SNOW  16  10  79 S8        29.82F WCI   5
MARSHFIELD     LGT SNOW  17  13  84 S10       29.78F FOG     WCI   5
STEVENS POINT  LGT SNOW  16  12  86 S6        29.83F WCI   7
WAUPACA        PTSUNNY   19  11  70 SE8       29.86F WCI   9
WAUTOMA        LGT SNOW  18  14  86 SE7       29.86F FOG     WCI   8
WISC RAPIDS    SNOW      17  12  80 S6        29.85R VSB 1/2 WCI   9
CAMP DOUGLAS   FLURRIES  19  19 100 SE8       29.83F WCI   9
$$

WIZ011>013-019>022-031-037>040-048>050-261600-
NORTHEAST WISCONSIN

CITY           SKY/WX    TMP DP  RH WIND       PRES   REMARKS
ANTIGO         FLURRIES  13   8  81 S10       29.79F WCI   0
SHAWANO        PTSUNNY   19  12  75 S3        29.87F
OCONTO         MOSUNNY   16  13  90 CALM      29.90F
STURGEON BAY   CLOUDY    19  12  73 S8        29.91F WCI   9
GREEN BAY      CLOUDY    16  11  80 SE6       29.90F WCI   7
MANITOWOC      MOSUNNY   19  16  88 CALM      29.93F
APPLETON       PTSUNNY   18  10  73 SE8       29.89F WCI   7
CLINTONVILLE   CLOUDY    18  12  79 SE7       29.86F WCI   8
OSHKOSH        CLOUDY    18  11  74 S8        29.88F WCI   8
$$

WIZ032>034-041-042-053>061-261600-
SOUTHWEST WISCONSIN

CITY           SKY/WX    TMP DP  RH WIND       PRES   REMARKS
LA CROSSE      CLOUDY    23  19  85 S14       29.81F WCI  11
SPARTA         LGT SNOW  21  17  84 CALM      29.83S
VIROQUA        CLOUDY    20  18  92 S10       29.80F WCI   8
BOSCOBEL       LGT SNOW  22  17  81 S3        29.87F
PRAIRIE DU CHI MIX PCPN  23  19  85 SE7       29.86F WCI  14
PLATTEVILLE    CLOUDY    18  16  91 SE8       29.88F WCI   8
$$

WIZ056-057-062-063-064-067-068-261600-
SOUTH CENTRAL WISCONSIN

CITY           SKY/WX    TMP DP  RH WIND       PRES   REMARKS
REEDSBURG      LGT SNOW  18  15  88 S6        29.85F VSB 1   WCI  10
BARABOO/DELLS  LGT SNOW  18  15  86 S8        29.84F WCI   8
LONE ROCK      LGT SNOW  19  17  92 CALM      29.88F FOG
MINERAL POINT  LGT SNOW  21  18  86 S10       29.86F WCI  10
MADISON        LGT SNOW  18  13  80 S9        29.89F WCI   7
MIDDLETON      CLOUDY    20  16  82 S8        29.88F VSB 1   WCI  10
WATERTOWN      CLOUDY    17  13  86 S6        29.90F WCI   9
MONROE         LGT SNOW  18  16  93 S8        29.89F WCI   7
JANESVILLE     CLOUDY    18  14  86 VRB6      29.93F WCI   9
$$

WIZ051-052-058>065-066-070>072-261600-
SOUTHEAST WISCONSIN

CITY           SKY/WX    TMP DP  RH WIND       PRES   REMARKS
MILWAUKEE      PTSUNNY   23  14  68 SW5       29.94F WCI  17
WAUKESHA       CLOUDY    18  12  79 CALM      29.93F
MILWAUKEE/TIMM PTSUNNY   19  14  79 CALM      29.95F
RACINE         PTSUNNY   22  14  71 W5        29.96F WCI  16
BURLINGTON     CLOUDY    16  13  88 CALM      29.94S
KENOSHA        PTSUNNY   20  15  81 CALM      29.95S
FOND DU LAC    CLOUDY    19  13  77 S7        29.89F WCI  10
SHEBOYGAN      MOSUNNY   17  13  84 CALM      29.92F
WEST BEND      CLOUDY    21  14  73 S5        29.91F WCI  15
JUNEAU         CLOUDY    17  13  82 SE10      29.90F WCI   5
$$

LSZ147-162-261600-
LAKE SUPERIOR

STATION/POSITION TIME  TEMP    WIND        PRES    WAVE
                       AIR SEA DIR/SP/G            HT/PER
                 (UTC) (F)     (DEG/KT/KT) (MB)    (FT/S)
DEVILS ISLAND    1500   21     180/  9/ 11 1007.4R
PORT WING        1400   22     190/  7/ 13 1005.8S
SAXON HARBOR     1400   21     180/  4/ 10 1006.1F
$$

LMZ867-665-643>646-261600-
LAKE MICHIGAN

STATION/POSITION TIME  TEMP    WIND        PRES    WAVE
                       AIR SEA DIR/SP/G            HT/PER
                 (UTC) (F)     (DEG/KT/KT) (MB)    (FT/S)
NORTHPORT PIER   1416   19      CALM  /  4 1013.9F
SISTER BAY       1313   13        CALM       N/A
KEWAUNEE LAKESHO 1500   23     200/  9/ 12 1012.4F
SHEBOYGAN LAKESH 1500   22     220/  7/  7 1014.8F
PORT WASHINGTON  1400   20        CALM     1014.9
MILWAUKEE LAKESH 1500   24     220/  6/  8   N/A
KENOSHA   LAKESH 1500   22     260/  3/  6 1014.2F
$$

TC  - TEMPERATURE IN CELSIUS
VSB - VISIBILITY IN STATUTE MILES
WCI - WIND CHILL INDEX
HX  - HEAT INDEX



USA.gov is the U.S. government's official web portal to all federal, state and local government web resources and services.